sat.trackr.live / text

‹ back to catalog

STARLINK-32480

NORAD 62039 · 2024-216H

PAYLOAD ACTIVE UNKNOWN

§ Identity

Operator
Country
US
Launch date
2024-11-21
Launch site
AFETR
Launch vehicle
Mass (kg)
RCS (m²)

Purposes: comms

External: N2YO · Heavens-Above · Gunter

§ Orbital elements

Epoch: 2026-05-25T03:05:08.555136Z

Period
94.27 min
Inclination
42.9969°
Eccentricity
0.0001108
Mean motion
15.27596985 rev/d
Perigee alt
482.2 km
Apogee alt
483.8 km
Semi-major
6,861.1 km
B*
4.5597e-4
RAAN
184.8360°
Arg perigee
272.8324°
Mean anomaly
87.2400°
Rev number
8,440

§ Raw data

STARLINK-324801 62039U 24216H   26145.12857124  .00012313  00000+0  45597-3 0  99952 62039  42.9969 184.8360 0001108 272.8324  87.2400 15.27596985 84403

JSON: /api/v1/satellites/62039 · /tle

For live sub-satellite position, see the globe view (requires WebGL).

§ Visibility from observer

Set your observer location to see the next 7 days of passes ≥ 10°. The values pass through the URL so the page stays shareable.

No JS? Fill the form by hand. The geolocation button needs JavaScript.